Weather Roundup
Issued by NWS

Home | Current Version | Previous Version | Graphics & Text | Print | Product List | Glossary Off
Versions: 1 2 3 4 5 6 7 8 9 10 11 12 13 14 15 16 17 18 19 20 21 22 23 24 25 26 27 28 29 30 31 32 33 34 35 36 37 38 39 40 41 42 43 44 45 46 47 48 49 50

000
NZUS93 KARX 190459
HRRWXR

CURRENT HOURLY OBSERVATIONS ACROSS
MUCH OF THE UPPER MISSISSIPPI VALLEY
NATIONAL WEATHER SERVICE LA CROSSE WI
1100 PM CST SAT NOV 18 2017


...SOUTHEAST MINNESOTA...


CITY           SKY/WX    TMP DP  RH WIND       PRES   REMARKS
ROCHESTER      CLEAR     20  15  81 NW17      29.99R WCI   5
ROCHESTER/MAYO FAIR      22  13  67 NW17G24   30.00R WCI   8
WINONA           N/A     30  19  64 NW9G18    29.98R WCI  22
AUSTIN         CLEAR     21  14  73 NW15      30.02R WCI   8
ALBERT LEA     CLEAR     21  12  68 NW9G16    30.03S WCI  11
DODGE CENTER   CLEAR     19  12  73 NW17      30.00R WCI   4
PRESTON        PTCLDY    21  14  75 NW17G25   29.98R WCI   7
OWATONNA       CLEAR     19  16  86 NW12      30.03S WCI   7
FARIBAULT      CLEAR     21  14  73 W10G17    30.04S WCI  10
$$

...ELSEWHERE IN MINNESOTA...


CITY           SKY/WX    TMP DP  RH WIND       PRES   REMARKS
MINNEAPOLIS    CLEAR     21  13  71 NW12G22   30.05R WCI   9
INTNL FALLS    CLOUDY    15   6  67 W12       29.93R WCI   2
DULUTH         FLURRIES  15   9  76 NW10      29.88F WCI   2
RED WING       CLEAR     21  10  63 NW12      30.02R WCI   9
REDWOOD FALLS  CLEAR     21   8  57 NW10G21   30.10R WCI  10
MANKATO        CLEAR     21  12  68 NW14G21   30.08R WCI   8
WORTHINGTON    CLEAR     21  14  74 NW12      30.11R WCI   9
FAIRMONT       CLEAR     21  14  74 NW13      30.10R WCI   9
$$

...SOUTHWEST WISCONSIN...


CITY           SKY/WX    TMP DP  RH WIND       PRES   REMARKS
LA CROSSE      CLOUDY    29  17  61 NW15G24   29.95R WCI  18
PRAIRIE DU CHI PTCLDY    29  18  61 NW17G24   29.96R WCI  17
BOSCOBEL       MOCLDY    31  20  63 W5        29.94R WCI  26
LONE ROCK      CLEAR     30  20  66 NW14G25   29.91R WCI  19
PLATTEVILLE    MOCLDY    31  24  77 NW13G23   29.91R WCI  21
FORT MC COY    CLOUDY    28  18  66 W10G17    29.93R WCI  19
CAMP DOUGLAS   CLOUDY   N/A N/A N/A NW12      29.91R
MAUSTON-NEW LI CLOUDY    30  20  65 NW14G23   29.88R WCI  19
VIROQUA        CLOUDY    28  22  76 NW13G18   29.90S WCI  18
WIS DELLS      CLOUDY    30  19  65 NW12G18   29.86R WCI  20
$$

...ELSEWHERE IN WISCONSIN...


CITY           SKY/WX    TMP DP  RH WIND       PRES   REMARKS
MILWAUKEE      CLOUDY    37  26  64 NW17G33   29.80R WCI  27
MADISON        MOCLDY    31  20  63 NW16G29   29.86R WCI  20
GREEN BAY      CLOUDY    33  27  78 NW16      29.79R WCI  23
EAU CLAIRE     NOT AVBL
BLACK RVR FLS  CLOUDY    29  16  58 NW9G17    29.92R WCI  20
MEDFORD        CLOUDY    23  14  67 N16G22    29.84R WCI  10
WAUSAU         CLOUDY    26  17  68 NW20G28   29.83R WCI  12
WIS RAPIDS     CLOUDY    29  18  63 N15G21    29.87R WCI  18
MARSHFIELD     CLOUDY    26  16  65 NW14G22   29.85R WCI  14
RICE LAKE      CLOUDY    22  13  69 NW8G16    29.97R WCI  12
$$

...NORTHEAST IOWA...


CITY           SKY/WX    TMP DP  RH WIND       PRES   REMARKS
WATERLOO       CLEAR     24  15  68 NW17G25   30.02S WCI  11
DUBUQUE        CLEAR     28  21  75 NW13      29.94R WCI  17
DECORAH        CLOUDY    25  18  74 NW14G21   29.95R WCI  13
MASON CITY     CLEAR     22  12  65 NW22      30.06R WCI   6
CHARLES CITY   CLEAR     23  16  74 NW21      30.02R WCI   8
OELWEIN        CLEAR     25  19  80 NW23G30   29.99R WCI  10
$$

...ELSEWHERE IN IOWA...


CITY           SKY/WX    TMP DP  RH WIND       PRES   REMARKS
DES MOINES     CLEAR     30  20  66 NW13      30.11R WCI  20
IOWA CITY      CLEAR     31  18  58 NW18G30   30.04R WCI  19
FORT DODGE     CLEAR     25  18  74 VRB3      30.11R
MARSHALLTOWN   CLEAR     26  18  71 NW17      30.06R WCI  13
CEDAR RAPIDS   CLEAR     26  19  74 NW17      30.01R WCI  13
$$

...NORTHERN ILLINOIS...


CITY           SKY/WX    TMP DP  RH WIND       PRES   REMARKS
CHICAGO-OHARE  CLOUDY    38  29  70 NW13      29.82R WCI  30
CHICAGO-MIDWAY NOT AVBL
MOLINE         MOCLDY    32  23  69 W14G26    29.98R WCI  22
ROCKFORD       CLOUDY    35  26  69 N16G24    29.89R WCI  25
PEORIA         CLEAR     33  26  75 NW12G24   29.96R WCI  24
$$

NOTE: "FAIR" INDICATES FEW OR NO CLOUDS BELOW 12,000 FEET WITH NO
SIGNIFICANT WEATHER AND/OR OBSTRUCTIONS TO VISIBILITY. WIND
SPEEDS ARE IN MILES-PER-HOUR.




USA.gov is the U.S. government's official web portal to all federal, state and local government web resources and services.